sat.trackr.live / text

‹ back to catalog

GEESAT-6 11

NORAD 65723 · 2025-214M

PAYLOAD ACTIVE UNKNOWN

§ Identity

Operator
Country
PRC
Launch date
2025-09-24
Launch site
YSLA
Launch vehicle
Mass (kg)
RCS (m²)

External: N2YO · Heavens-Above · Gunter

§ Orbital elements

Epoch: 2026-09-20T22:09:22.529952Z

Period
97.06 min
Inclination
49.9827°
Eccentricity
0.0009858
Mean motion
14.83601329 rev/d
Perigee alt
611.1 km
Apogee alt
624.9 km
Semi-major
6,996.1 km
B*
1.4849e-4
RAAN
224.2328°
Arg perigee
234.0413°
Mean anomaly
125.9611°
Rev number
5,372

§ Raw data

GEESAT-6 111 65723U 25214M   26263.92317743  .00001010  00000+0  14849-3 0  99922 65723  49.9827 224.2328 0009858 234.0413 125.9611 14.83601329 53723

JSON: /api/v1/satellites/65723 · /tle

For live sub-satellite position, see the globe view (requires WebGL).

§ Visibility from observer

Set your observer location to see the next 7 days of passes ≥ 10°. The values pass through the URL so the page stays shareable.

No JS? Fill the form by hand. The geolocation button needs JavaScript.